OE3PDB-4 Weather Reports


time (UTC)temp
C
wind
direction
speed
KPH
gust
KPH
rain 1hr
cm
rain 24hr
cm
rain mn
cm
humidity
%
barometer
mb
20260505222000 15 180 0.0 0.0 0.00 0.00 0.00 57 1006.9
20260505221000 16 180 0.0 0.0 0.00 0.00 0.00 56 1006.7
20260505220000 16 180 0.0 0.0 0.00 0.00 0.00 55 1006.7
20260505215000 16 180 0.0 0.0 0.00 0.00 0.00 55 1006.6
20260505214000 16 180 0.0 0.0 0.00 0.00 0.00 54 1006.6
20260505213000 16 180 0.0 0.0 0.00 0.00 0.00 54 1006.5
20260505212000 17 180 0.0 0.0 0.00 0.00 0.00 54 1006.3
20260505211000 17 180 0.0 0.0 0.00 0.00 0.00 53 1006.2
20260505210000 17 180 0.0 0.0 0.00 0.00 0.00 52 1006.2
20260505205000 17 180 0.0 0.0 0.00 0.00 0.00 51 1006.4
20260505204000 18 157 0.0 0.0 0.00 0.00 0.00 50 1006.2
20260505203000 18 157 0.0 0.0 0.00 0.00 0.00 49 1005.9
20260505202000 18 157 0.0 0.0 0.00 0.00 0.00 49 1005.7
20260505201000 19 157 0.0 0.0 0.00 0.00 0.00 48 1005.7
20260505200000 19 157 0.0 0.0 0.00 0.00 0.00 48 1005.5
20260505195000 19 157 0.0 0.0 0.00 0.00 0.00 47 1005.5
20260505194000 19 157 0.0 0.0 0.00 0.00 0.00 47 1005.5
20260505193000 20 157 0.0 0.0 0.00 0.00 0.00 46 1005.5
20260505192000 20 157 0.0 0.0 0.00 0.00 0.00 46 1005.4
20260505191000 20 157 0.0 0.0 0.00 0.00 0.00 45 1005.4
20260505190000 20 180 0.0 0.0 0.00 0.00 0.00 44 1005.4
20260505185000 20 180 0.0 0.0 0.00 0.00 0.00 44 1005.4
20260505184000 20 180 0.0 0.0 0.00 0.00 0.00 43 1005.3
20260505183000 21 157 3.2 3.2 0.00 0.00 0.00 42 1005.2
20260505182000 21 157 0.0 0.0 0.00 0.00 0.00 42 1005.2
20260505181000 21 157 0.0 0.0 0.00 0.00 0.00 41 1005.2
20260505180000 21 157 3.2 3.2 0.00 0.00 0.00 40 1005.1
20260505175000 22 180 3.2 3.2 0.00 0.00 0.00 40 1005.2
20260505174000 22 270 0.0 0.0 0.00 0.00 0.00 40 1005.1
20260505173000 22 202 0.0 0.0 0.00 0.00 0.00 39 1005.0
20260505172000 22 180 0.0 0.0 0.00 0.00 0.00 39 1005.1
20260505171000 23 315 0.0 0.0 0.00 0.00 0.00 38 1005.1
20260505170000 23 157 0.0 0.0 0.00 0.00 0.00 38 1005.3
20260505165000 23 157 0.0 0.0 0.00 0.00 0.00 38 1005.4
20260505164000 23 157 0.0 0.0 0.00 0.00 0.00 37 1005.4
20260505163000 23 180 0.0 6.4 0.00 0.00 0.00 36 1005.4
20260505162000 24 180 3.2 3.2 0.00 0.00 0.00 36 1005.4
20260505161000 25 202 3.2 3.2 0.00 0.00 0.00 35 1005.4
20260505153000 26 180 0.0 3.2 0.00 0.00 0.00 32 1005.4
20260505152000 26 157 6.4 6.4 0.00 0.00 0.00 31 1005.5
20260505151000 27 157 0.0 0.0 0.00 0.00 0.00 29 1005.5
20260505125000 28 315 4.8 4.8 0.00 0.00 0.00 26 1006.4
20260505124000 28 247 0.0 4.8 0.00 0.00 0.00 26 1006.6
20260505123000 28 247 0.0 0.0 0.00 0.00 0.00 26 1006.7
20260505122001 28 180 1.6 9.7 0.00 0.00 0.00 27 1006.9
20260505121001 27 315 0.0 0.0 0.00 0.00 0.00 28 1006.9
20260505120001 27 157 1.6 1.6 0.00 0.00 0.00 28 1007.0
20260505115001 27 180 4.8 4.8 0.00 0.00 0.00 30 1007.2
20260505114001 27 180 0.0 1.6 0.00 0.00 0.00 32 1007.2
20260505113001 27 157 6.4 6.4 0.00 0.00 0.00 34 1007.3
20260505112001 26 180 1.6 1.6 0.00 0.00 0.00 36 1007.4
20260505111001 26 270 0.0 0.0 0.00 0.00 0.00 39 1007.7
20260505102001 23 180 0.0 0.0 0.00 0.00 0.00 41 1008.7
20260505101001 23 180 1.6 1.6 0.00 0.00 0.00 42 1008.8
20260505100001 23 292 1.6 1.6 0.00 0.00 0.00 43 1009.1
20260505095001 22 180 3.2 3.2 0.00 0.00 0.00 43 1009.2
20260505094001 22 180 0.0 0.0 0.00 0.00 0.00 44 1009.2
20260505093001 22 180 0.0 0.0 0.00 0.00 0.00 44 1009.3
20260505092001 22 157 0.0 0.0 0.00 0.00 0.00 44 1009.5
20260505091001 21 90 0.0 0.0 0.00 0.00 0.00 45 1009.6
20260505090001 21 180 0.0 1.6 0.00 0.00 0.00 46 1009.7
20260505085001 21 157 4.8 4.8 0.00 0.00 0.00 46 1009.7
20260505084001 21 157 0.0 3.2 0.00 0.00 0.00 46 1009.8
20260505083001 20 157 0.0 3.2 0.00 0.00 0.00 48 1009.5
20260505082001 20 157 0.0 1.6 0.00 0.00 0.00 48 1009.6
20260505081001 20 180 0.0 0.0 0.00 0.00 0.00 49 1009.8
20260505080001 19 202 0.0 0.0 0.00 0.00 0.00 50 1009.8
20260505075001 19 180 0.0 0.0 0.00 0.00 0.00 51 1009.8
20260505074001 18 180 3.2 3.2 0.00 0.00 0.00 53 1009.9
20260505073001 18 180 0.0 0.0 0.00 0.00 0.00 53 1009.9
20260505072001 17 180 0.0 3.2 0.00 0.00 0.00 56 1010.0
20260505071001 17 180 0.0 0.0 0.00 0.00 0.00 58 1010.0
20260505070001 16 225 0.0 0.0 0.00 0.00 0.00 60 1010.3
20260505065001 16 225 0.0 0.0 0.00 0.00 0.00 61 1010.2
20260505064001 15 225 0.0 0.0 0.00 0.00 0.00 61 1010.2
20260505063001 15 225 0.0 0.0 0.00 0.00 0.00 61 1010.1
20260505062001 15 225 0.0 0.0 0.00 0.00 0.00 62 1010.1
20260505061001 15 225 0.0 0.0 0.00 0.00 0.00 63 1010.0
20260505060001 15 225 0.0 0.0 0.00 0.00 0.00 63 1010.0
20260505055001 15 225 0.0 0.0 0.00 0.00 0.00 63 1009.9
20260505054001 14 225 0.0 0.0 0.00 0.00 0.00 63 1009.9
20260505053001 14 225 0.0 0.0 0.00 0.00 0.00 64 1009.9
20260505052001 13 225 0.0 0.0 0.00 0.00 0.00 65 1010.0
20260505051001 13 225 0.0 0.0 0.00 0.00 0.00 65 1010.0
20260505041001 12 225 0.0 0.0 0.00 0.00 0.00 65 1010.0
20260505040001 12 225 0.0 0.0 0.00 0.00 0.00 65 1009.9
20260505035001 12 225 0.0 0.0 0.00 0.00 0.00 64 1009.9
20260505034001 12 225 0.0 0.0 0.00 0.00 0.00 64 1009.9
20260505033001 12 225 0.0 0.0 0.00 0.00 0.00 64 1010.0
20260505032001 12 225 0.0 0.0 0.00 0.00 0.00 64 1010.0
20260505031001 12 225 0.0 0.0 0.00 0.00 0.00 63 1010.0
20260505030001 12 225 0.0 0.0 0.00 0.00 0.00 63 1010.2
20260505025001 12 225 0.0 0.0 0.00 0.00 0.00 63 1010.2
20260505024001 12 225 0.0 0.0 0.00 0.00 0.00 63 1010.1
20260505023001 12 225 0.0 0.0 0.00 0.00 0.00 63 1010.0
20260505022001 12 225 0.0 0.0 0.00 0.00 0.00 63 1010.2
20260505021001 12 225 0.0 0.0 0.00 0.00 0.00 63 1010.2
20260505020001 12 225 0.0 0.0 0.00 0.00 0.00 62 1010.4
20260505015001 12 225 0.0 0.0 0.00 0.00 0.00 62 1010.5
20260505014001 13 225 0.0 0.0 0.00 0.00 0.00 61 1010.4
20260505013002 13 225 0.0 0.0 0.00 0.00 0.00 61 1010.4
20260505012001 13 225 0.0 0.0 0.00 0.00 0.00 61 1010.4
20260505011001 13 225 0.0 0.0 0.00 0.00 0.00 60 1010.4
20260505010001 13 225 0.0 0.0 0.00 0.00 0.00 59 1010.5
20260505005002 13 225 0.0 0.0 0.00 0.00 0.00 59 1010.6
20260505004002 13 225 0.0 0.0 0.00 0.00 0.00 59 1010.5
20260505003002 13 225 0.0 0.0 0.00 0.00 0.00 58 1010.6
20260505002002 14 225 0.0 0.0 0.00 0.00 0.00 58 1010.6
20260505001002 14 225 0.0 0.0 0.00 0.00 0.00 57 1010.7
20260505000002 14 225 0.0 0.0 0.00 0.00 0.00 57 1010.6
20260504235002 14 225 0.0 0.0 0.00 0.00 0.00 57 1010.8
20260504234002 15 225 0.0 0.0 0.00 0.00 0.00 56 1010.9
20260504233002 15 225 0.0 0.0 0.00 0.00 0.00 55 1010.9
20260504232002 15 225 0.0 0.0 0.00 0.00 0.00 55 1010.9
20260504231002 15 225 0.0 0.0 0.00 0.00 0.00 54 1010.9
20260504230002 15 225 0.0 0.0 0.00 0.00 0.00 53 1010.9
20260504225002 16 225 0.0 0.0 0.00 0.00 0.00 52 1011.0
20260504224002 16 225 0.0 0.0 0.00 0.00 0.00 51 1011.0
20260504223002 16 225 0.0 0.0 0.00 0.00 0.00 51 1011.0